TimePST,TemperatureF,Dew PointF,Humidity,Sea Level PressureIn,VisibilityMPH,Wind Direction,Wind SpeedMPH,Gust SpeedMPH,PrecipitationIn,Events,Conditions,WindDirDegrees,DateUTC
12:15 AM,32.0,6.8,35,30.21,10.0,East,11.5,-,N/A,,Clear,100,2013-01-02 08:15:00
12:35 AM,32.0,6.8,35,30.21,10.0,East,12.7,18.4,N/A,,Clear,80,2013-01-02 08:35:00
12:55 AM,32.0,6.8,35,30.21,10.0,East,6.9,-,N/A,,Clear,100,2013-01-02 08:55:00
1:15 AM,33.8,6.8,32,30.21,10.0,ESE,8.1,-,N/A,,Clear,110,2013-01-02 09:15:00
1:35 AM,32.0,6.8,35,30.21,10.0,ESE,9.2,-,N/A,,Clear,110,2013-01-02 09:35:00
1:55 AM,32.0,6.8,35,30.22,10.0,East,6.9,-,N/A,,Clear,80,2013-01-02 09:55:00
2:15 AM,32.0,6.8,35,30.21,10.0,ESE,13.8,18.4,N/A,,Clear,120,2013-01-02 10:15:00
2:35 AM,32.0,6.8,35,30.21,10.0,East,9.2,-,N/A,,Clear,100,2013-01-02 10:35:00
2:55 AM,32.0,6.8,35,30.21,10.0,ESE,9.2,-,N/A,,Clear,120,2013-01-02 10:55:00
3:15 AM,32.0,6.8,35,30.20,10.0,ESE,9.2,-,N/A,,Clear,120,2013-01-02 11:15:00
3:35 AM,33.8,6.8,32,30.20,10.0,SE,13.8,17.3,N/A,,Clear,140,2013-01-02 11:35:00
3:55 AM,33.8,6.8,32,30.19,10.0,SE,10.4,-,N/A,,Clear,130,2013-01-02 11:55:00
4:15 AM,35.6,6.8,30,30.18,10.0,SE,13.8,21.9,N/A,,Clear,140,2013-01-02 12:15:00
4:35 AM,35.6,6.8,30,30.18,10.0,SE,18.4,24.2,N/A,,Clear,130,2013-01-02 12:35:00
4:55 AM,35.6,6.8,30,30.18,10.0,ESE,15.0,-,N/A,,Clear,120,2013-01-02 12:55:00
5:15 AM,33.8,6.8,32,30.17,10.0,ESE,18.4,23.0,N/A,,Clear,120,2013-01-02 13:15:00
5:35 AM,35.6,6.8,30,30.17,10.0,ESE,15.0,21.9,N/A,,Clear,120,2013-01-02 13:35:00
5:55 AM,32.0,6.8,35,30.17,10.0,East,12.7,18.4,N/A,,Clear,100,2013-01-02 13:55:00
6:15 AM,32.0,6.8,35,30.16,10.0,ESE,16.1,24.2,N/A,,Clear,120,2013-01-02 14:15:00
6:35 AM,32.0,6.8,35,30.16,10.0,ESE,18.4,23.0,N/A,,Clear,120,2013-01-02 14:35:00
6:55 AM,32.0,6.8,35,30.16,10.0,ESE,16.1,24.2,N/A,,Clear,120,2013-01-02 14:55:00
7:15 AM,32.0,6.8,35,30.17,10.0,East,17.3,23.0,N/A,,Clear,90,2013-01-02 15:15:00
7:35 AM,32.0,6.8,35,30.17,10.0,East,13.8,25.3,N/A,,Clear,100,2013-01-02 15:35:00
7:55 AM,35.6,6.8,30,30.17,10.0,ESE,13.8,23.0,N/A,,Clear,120,2013-01-02 15:55:00
8:15 AM,37.4,6.8,28,30.17,10.0,ESE,16.1,21.9,N/A,,Clear,110,2013-01-02 16:15:00
8:35 AM,37.4,6.8,28,30.17,10.0,ESE,16.1,23.0,N/A,,Clear,120,2013-01-02 16:35:00
8:55 AM,39.2,6.8,26,30.18,10.0,SE,18.4,26.5,N/A,,Clear,130,2013-01-02 16:55:00
9:15 AM,39.2,6.8,26,30.17,10.0,SE,17.3,27.6,N/A,,Clear,140,2013-01-02 17:15:00
9:35 AM,41.0,6.8,24,30.18,10.0,SE,16.1,24.2,N/A,,Clear,130,2013-01-02 17:35:00
9:55 AM,41.0,6.8,24,30.18,10.0,SE,15.0,23.0,N/A,,Clear,140,2013-01-02 17:55:00
10:15 AM,42.8,6.8,23,30.19,8.0,SE,13.8,21.9,N/A,,Clear,130,2013-01-02 18:15:00
10:35 AM,44.6,6.8,21,30.19,9.0,SE,12.7,19.6,N/A,,Clear,140,2013-01-02 18:35:00
10:55 AM,44.6,8.6,23,30.19,9.0,SE,12.7,19.6,N/A,,Clear,130,2013-01-02 18:55:00
11:15 AM,46.4,8.6,22,30.18,9.0,ESE,10.4,17.3,N/A,,Clear,110,2013-01-02 19:15:00
11:35 AM,46.4,6.8,20,30.17,10.0,ESE,9.2,-,N/A,,Clear,120,2013-01-02 19:35:00
11:55 AM,46.4,6.8,20,30.16,10.0,East,3.5,-,N/A,,Clear,100,2013-01-02 19:55:00
12:15 PM,48.2,8.6,20,30.15,9.0,ESE,10.4,-,N/A,,Clear,120,2013-01-02 20:15:00
12:35 PM,48.2,8.6,20,30.14,9.0,ESE,10.4,-,N/A,,Clear,120,2013-01-02 20:35:00
12:55 PM,50.0,8.6,19,30.13,10.0,ESE,10.4,-,N/A,,Clear,120,2013-01-02 20:55:00
1:15 PM,50.0,8.6,19,30.12,10.0,ESE,9.2,-,N/A,,Clear,120,2013-01-02 21:15:00
1:35 PM,51.8,8.6,18,30.12,10.0,East,9.2,-,N/A,,Clear,100,2013-01-02 21:35:00
1:55 PM,51.8,8.6,18,30.12,10.0,ENE,5.8,-,N/A,,Clear,70,2013-01-02 21:55:00
2:15 PM,48.2,24.8,40,30.13,10.0,NW,11.5,-,N/A,,Clear,320,2013-01-02 22:15:00
2:35 PM,48.2,23.0,37,30.12,9.0,NW,11.5,-,N/A,,Clear,320,2013-01-02 22:35:00
2:55 PM,48.2,24.8,40,30.12,10.0,NW,10.4,-,N/A,,Clear,320,2013-01-02 22:55:00
3:15 PM,48.2,23.0,37,30.12,10.0,NW,6.9,-,N/A,,Clear,320,2013-01-02 23:15:00
3:35 PM,48.2,19.4,32,30.12,10.0,NW,6.9,-,N/A,,Clear,320,2013-01-02 23:35:00
3:55 PM,46.4,24.8,43,30.13,10.0,NW,8.1,-,N/A,,Clear,320,2013-01-02 23:55:00
4:35 PM,42.8,17.6,36,30.13,9.0,ESE,4.6,-,N/A,,Clear,110,2013-01-03 00:35:00
4:55 PM,39.2,14.0,36,30.14,10.0,ESE,11.5,-,N/A,,Clear,120,2013-01-03 00:55:00
5:15 PM,37.4,10.4,33,30.14,10.0,ESE,8.1,-,N/A,,Clear,120,2013-01-03 01:15:00
5:35 PM,32.0,14.0,48,30.14,10.0,SE,9.2,-,N/A,,Clear,130,2013-01-03 01:35:00
5:55 PM,32.0,14.0,48,30.15,10.0,Calm,Calm,-,N/A,,Clear,0,2013-01-03 01:55:00
6:15 PM,32.0,14.0,48,30.15,10.0,Calm,Calm,-,N/A,,Clear,0,2013-01-03 02:15:00
6:35 PM,32.0,14.0,48,30.15,10.0,Calm,Calm,-,N/A,,Clear,0,2013-01-03 02:35:00
6:55 PM,30.2,15.8,55,30.15,10.0,SE,5.8,-,N/A,,Clear,130,2013-01-03 02:55:00
7:35 PM,28.4,15.8,59,30.15,10.0,East,6.9,-,N/A,,Clear,90,2013-01-03 03:35:00
7:55 PM,30.2,15.8,55,30.15,10.0,Calm,Calm,-,N/A,,Clear,0,2013-01-03 03:55:00
8:15 PM,28.4,14.0,55,30.14,10.0,East,5.8,-,N/A,,Clear,100,2013-01-03 04:15:00
8:35 PM,28.4,15.8,59,30.14,10.0,ESE,10.4,-,N/A,,Clear,120,2013-01-03 04:35:00
8:55 PM,33.8,10.4,38,30.14,10.0,East,11.5,-,N/A,,Clear,100,2013-01-03 04:55:00
9:15 PM,37.4,10.4,33,30.14,10.0,East,9.2,-,N/A,,Clear,100,2013-01-03 05:15:00
9:35 PM,37.4,10.4,33,30.14,10.0,East,11.5,-,N/A,,Clear,90,2013-01-03 05:35:00
9:55 PM,39.2,8.6,28,30.15,10.0,East,12.7,-,N/A,,Clear,90,2013-01-03 05:55:00
10:15 PM,39.2,8.6,28,30.15,10.0,East,10.4,-,N/A,,Clear,100,2013-01-03 06:15:00
10:35 PM,35.6,10.4,35,30.15,10.0,SE,9.2,-,N/A,,Clear,130,2013-01-03 06:35:00
10:55 PM,28.4,14.0,55,30.15,10.0,SE,10.4,-,N/A,,Clear,130,2013-01-03 06:55:00
11:15 PM,30.2,14.0,51,30.15,10.0,ESE,12.7,-,N/A,,Clear,110,2013-01-03 07:15:00
11:35 PM,32.0,14.0,48,30.15,10.0,East,10.4,-,N/A,,Clear,100,2013-01-03 07:35:00
11:55 PM,28.4,14.0,55,30.15,10.0,ESE,11.5,-,N/A,,Clear,110,2013-01-03 07:55:00